Find Kosmos-1432

NORAD ID: 13764 Int'l Des: 1983-002 Owner: GUKOS Country: SU operational
LEOCIRCULAR

リアルタイム位置

3D地球を読み込み中...

Kosmos-1432について

説明を読み込み中...

次回通過

Passes for default location (London). Set your location on the main map for personalized predictions.

高度履歴

Loading altitude history...

軌道要素

1 13764U 83002D 26106.60950516 -.00000029 00000-0 -85722-4 0 9992
2 13764 74.0248 56.6834 0003109 189.2531 344.6624 12.49887546973150
Epoch: Apr 16, 2026 • Age: 18 hours

現在のステータス

高度 1469.0 km
速度 7.13 km/s
衛星直下点 11.93°N, 78.99°E
打ち上げ日 Jan 19, 1983
運用期間 43.2 years
タイプ other

技術仕様

分類 Payload
質量 60.00 kg
乾燥質量 60.00 kg
総質量 60.00 kg
長さ 0.80 m
直径 0.80 m
スパン 0.80 m
形状 Poly
製造者 NPOPM
バスタイプ Strela-1 11F625
フェーズステータス In Orbit
所有者/国 GUKOS/SU

Most Searched